AAL1539 KATL-KDCA

Flight info

Callsign AAL1539
Flight time N/A
Altitude 33000
Route JACCC2 KELLN Q56 KIWII WAVES CAPSS4
Aircraft E75L/M-SDE3GILORVW/S

Departure

Time 2026-05-05 23:07
Airport Hartsfield Jackson Atlanta International Airport (KATL)

Arrival

Time N/A
Airport Ronald Reagan Washington National Airport (KDCA)
Time Latitude Longitude Altitude Speed Heading
2026-05-05 22:52 33.64210 -84.43967 1004 ft 0 kts 89°
2026-05-05 22:56 33.64209 -84.43989 1004 ft 4 kts 86°
2026-05-05 22:56 33.64207 -84.44021 997 ft 4 kts 83°
2026-05-05 22:56 33.64206 -84.44033 1006 ft 2 kts 82°
2026-05-05 22:58 33.64206 -84.44031 1006 ft 1 kts 90°
2026-05-05 22:59 33.64198 -84.44019 1005 ft 3 kts 154°
2026-05-05 22:59 33.64171 -84.44027 1004 ft 7 kts 198°
2026-05-05 22:59 33.64121 -84.44045 1004 ft 9 kts 192°
2026-05-05 22:59 33.64054 -84.44049 1004 ft 11 kts 180°
2026-05-05 23:00 33.64003 -84.44049 1004 ft 4 kts 180°
2026-05-05 23:00 33.63960 -84.44049 1004 ft 9 kts 180°
2026-05-05 23:00 33.63889 -84.44050 1004 ft 12 kts 180°
2026-05-05 23:01 33.63804 -84.44050 1004 ft 13 kts 180°
2026-05-05 23:01 33.63714 -84.44049 1004 ft 12 kts 173°
2026-05-05 23:01 33.63664 -84.43978 1004 ft 13 kts 92°
2026-05-05 23:01 33.63664 -84.43863 1004 ft 15 kts 90°
2026-05-05 23:02 33.63664 -84.43735 1004 ft 16 kts 90°
2026-05-05 23:02 33.63664 -84.43600 1004 ft 15 kts 89°
2026-05-05 23:02 33.63664 -84.43465 1004 ft 17 kts 90°
2026-05-05 23:02 33.63664 -84.43315 1004 ft 19 kts 90°
2026-05-05 23:03 33.63663 -84.43156 1004 ft 20 kts 91°
2026-05-05 23:03 33.63664 -84.43015 1004 ft 16 kts 91°
2026-05-05 23:03 33.63664 -84.42875 1004 ft 17 kts 90°
2026-05-05 23:03 33.63658 -84.42731 1004 ft 17 kts 97°
2026-05-05 23:04 33.63655 -84.42586 1004 ft 18 kts 90°
2026-05-05 23:04 33.63655 -84.42429 1004 ft 20 kts 90°
2026-05-05 23:04 33.63655 -84.42271 1004 ft 17 kts 89°
2026-05-05 23:04 33.63655 -84.42119 1005 ft 19 kts 90°
2026-05-05 23:05 33.63655 -84.41957 1004 ft 20 kts 90°
2026-05-05 23:05 33.63651 -84.41812 1004 ft 10 kts 110°
2026-05-05 23:05 33.63589 -84.41778 1004 ft 11 kts 163°
2026-05-05 23:05 33.63515 -84.41768 1003 ft 11 kts 184°
2026-05-05 23:06 33.63472 -84.41811 1004 ft 8 kts 255°
2026-05-05 23:06 33.63470 -84.41891 1005 ft 16 kts 271°
2026-05-05 23:06 33.63469 -84.42243 1004 ft 75 kts 269°
2026-05-05 23:06 33.63469 -84.43130 1003 ft 136 kts 270°
2026-05-05 23:07 33.63476 -84.44385 1336 ft 161 kts 270°
2026-05-05 23:07 33.63488 -84.45790 1974 ft 174 kts 265°
2026-05-05 23:07 33.63315 -84.47304 2634 ft 189 kts 249°
2026-05-05 23:07 33.62757 -84.48829 3250 ft 211 kts 241°
2026-05-05 23:08 33.62117 -84.50408 4144 ft 214 kts 239°
2026-05-05 23:08 33.61433 -84.52051 4858 ft 224 kts 240°
2026-05-05 23:08 33.60728 -84.53742 5824 ft 230 kts 241°
2026-05-05 23:08 33.59971 -84.55551 6451 ft 253 kts 242°
2026-05-05 23:09 33.58902 -84.57248 7339 ft 261 kts 221°
2026-05-05 23:09 33.57258 -84.58216 8341 ft 270 kts 198°
2026-05-05 23:09 33.55352 -84.58458 9248 ft 282 kts 188°
2026-05-05 23:09 33.53360 -84.58528 10148 ft 289 kts 186°
2026-05-05 23:10 33.51320 -84.58518 11000 ft 297 kts 185°
2026-05-05 23:10 33.49222 -84.58324 11726 ft 315 kts 175°
2026-05-05 23:10 33.47115 -84.57192 12050 ft 354 kts 146°
2026-05-05 23:10 33.45505 -84.54828 12442 ft 383 kts 116°
2026-05-05 23:11 33.44907 -84.51698 13218 ft 391 kts 91°
2026-05-05 23:11 33.44939 -84.48432 14155 ft 394 kts 85°
2026-05-05 23:11 33.45075 -84.45135 15009 ft 400 kts 85°
2026-05-05 23:11 33.45215 -84.41785 15893 ft 405 kts 85°
2026-05-05 23:12 33.45379 -84.38391 16711 ft 411 kts 83°
2026-05-05 23:12 33.45640 -84.34961 17495 ft 416 kts 78°
2026-05-05 23:12 33.46394 -84.31625 18234 ft 415 kts 64°
2026-05-05 23:12 33.47608 -84.28533 18900 ft 415 kts 57°
2026-05-05 23:13 33.49005 -84.25509 19609 ft 417 kts 56°
2026-05-05 23:13 33.50421 -84.22456 20212 ft 422 kts 57°
2026-05-05 23:13 33.51835 -84.19352 20866 ft 426 kts 57°
2026-05-05 23:13 33.53251 -84.16211 21485 ft 431 kts 57°
2026-05-05 23:14 33.54677 -84.13035 22094 ft 435 kts 57°
2026-05-05 23:14 33.56157 -84.09863 22701 ft 437 kts 55°
2026-05-05 23:14 33.57682 -84.06681 23261 ft 442 kts 56°
2026-05-05 23:14 33.59174 -84.03444 23771 ft 446 kts 57°
2026-05-05 23:15 33.60650 -84.00157 24211 ft 450 kts 57°
2026-05-05 23:15 33.62124 -83.96830 24666 ft 453 kts 57°
2026-05-05 23:15 33.63601 -83.93479 25096 ft 456 kts 57°
2026-05-05 23:15 33.65087 -83.90104 25551 ft 458 kts 56°
2026-05-05 23:16 33.66569 -83.86726 26175 ft 456 kts 56°
2026-05-05 23:16 33.68043 -83.83361 26795 ft 455 kts 56°
2026-05-05 23:16 33.69513 -83.80008 27388 ft 453 kts 55°
2026-05-05 23:16 33.70983 -83.76655 27960 ft 453 kts 55°
2026-05-05 23:17 33.72448 -83.73317 28516 ft 452 kts 55°
2026-05-05 23:17 33.73913 -83.69974 29091 ft 451 kts 54°
2026-05-05 23:17 33.75375 -83.66638 29622 ft 451 kts 54°
2026-05-05 23:17 33.76937 -83.63392 30113 ft 446 kts 49°
2026-05-05 23:18 33.78598 -83.60261 30557 ft 443 kts 48°
2026-05-05 23:18 33.80278 -83.57152 30969 ft 444 kts 47°
2026-05-05 23:18 33.81958 -83.54035 31399 ft 444 kts 47°
2026-05-05 23:18 33.83609 -83.50960 31862 ft 442 kts 47°
2026-05-05 23:19 33.85267 -83.47861 32332 ft 440 kts 47°
2026-05-05 23:19 33.86923 -83.44763 32738 ft 439 kts 46°
2026-05-05 23:19 33.88570 -83.41678 33160 ft 438 kts 46°
2026-05-05 23:19 33.90242 -83.38562 33136 ft 448 kts 46°
2026-05-05 23:20 33.93688 -83.32119 33041 ft 467 kts 47°
2026-05-05 23:20 33.97194 -83.25511 32985 ft 469 kts 47°
2026-05-05 23:21 34.00708 -83.18886 32996 ft 470 kts 47°
2026-05-05 23:21 34.04228 -83.12247 32980 ft 470 kts 47°
2026-05-05 23:22 34.07744 -83.05597 32991 ft 470 kts 47°
2026-05-05 23:22 34.11258 -82.98945 32996 ft 470 kts 47°
2026-05-05 23:23 34.14767 -82.92269 33000 ft 471 kts 48°
2026-05-05 23:23 34.18256 -82.85578 32998 ft 471 kts 48°
2026-05-05 23:24 34.21742 -82.78888 32998 ft 471 kts 48°
2026-05-05 23:24 34.25199 -82.72244 33000 ft 470 kts 48°
2026-05-05 23:25 34.28676 -82.65552 32995 ft 470 kts 48°
2026-05-05 23:25 34.32151 -82.58847 32989 ft 470 kts 48°
2026-05-05 23:26 34.35625 -82.52130 32997 ft 471 kts 49°
2026-05-05 23:26 34.39092 -82.45414 33007 ft 471 kts 49°
2026-05-05 23:27 34.42560 -82.38686 33004 ft 470 kts 49°
2026-05-05 23:27 34.45965 -82.31939 33007 ft 473 kts 52°
2026-05-05 23:28 34.49106 -82.24912 33033 ft 474 kts 52°
2026-05-05 23:28 34.52270 -82.17910 33004 ft 471 kts 50°
2026-05-05 23:29 34.55994 -82.11492 33007 ft 464 kts 44°
2026-05-05 23:29 34.59859 -82.05236 33015 ft 463 kts 44°
2026-05-05 23:30 34.63050 -82.00020 33012 ft 463 kts 44°
2026-05-05 23:30 34.67529 -81.92657 33012 ft 463 kts 44°
2026-05-05 23:31 34.71359 -81.86348 33000 ft 464 kts 44°
2026-05-05 23:31 34.75188 -81.80028 33001 ft 464 kts 44°
2026-05-05 23:32 34.79014 -81.73700 33002 ft 464 kts 44°
2026-05-05 23:32 34.82814 -81.67405 33002 ft 464 kts 44°
2026-05-05 23:33 34.86630 -81.61074 32994 ft 462 kts 45°
2026-05-05 23:33 34.90437 -81.54745 33000 ft 463 kts 45°
2026-05-05 23:34 34.94243 -81.48408 32997 ft 463 kts 45°
2026-05-05 23:34 34.98052 -81.42056 33001 ft 464 kts 44°
2026-05-05 23:35 35.01857 -81.35699 32998 ft 464 kts 45°
2026-05-05 23:35 35.05659 -81.29335 32995 ft 464 kts 45°
2026-05-05 23:36 35.09456 -81.22965 32993 ft 464 kts 45°
2026-05-05 23:36 35.13251 -81.16592 32997 ft 464 kts 45°
2026-05-05 23:37 35.17039 -81.10214 33008 ft 464 kts 45°
2026-05-05 23:37 35.20196 -81.04890 33007 ft 465 kts 45°
2026-05-05 23:38 35.23985 -80.98473 33005 ft 465 kts 45°
2026-05-05 23:38 35.27772 -80.92049 33013 ft 465 kts 45°
2026-05-05 23:39 35.31545 -80.85635 33013 ft 464 kts 45°
2026-05-05 23:39 35.35318 -80.79218 33036 ft 464 kts 45°
2026-05-05 23:40 35.39088 -80.72792 33035 ft 464 kts 45°
2026-05-05 23:40 35.42862 -80.66344 33033 ft 465 kts 45°
2026-05-05 23:41 35.46637 -80.59885 33004 ft 465 kts 45°
2026-05-05 23:41 35.50404 -80.53426 33005 ft 466 kts 45°
2026-05-05 23:42 35.54130 -80.47025 33005 ft 464 kts 45°
2026-05-05 23:42 35.57880 -80.40575 33002 ft 464 kts 45°
2026-05-05 23:43 35.61626 -80.34118 33004 ft 464 kts 45°
2026-05-05 23:43 35.65369 -80.27657 33000 ft 464 kts 45°
2026-05-05 23:44 35.69109 -80.21189 33002 ft 464 kts 45°
2026-05-05 23:44 35.72844 -80.14717 33000 ft 463 kts 46°
2026-05-05 23:45 35.76564 -80.08256 32999 ft 463 kts 46°
2026-05-05 23:45 35.80286 -80.01781 33025 ft 463 kts 46°
2026-05-05 23:46 35.84003 -79.95303 33016 ft 465 kts 46°
2026-05-05 23:46 35.87733 -79.88788 32989 ft 464 kts 46°
2026-05-05 23:47 35.91456 -79.82275 32995 ft 465 kts 46°
2026-05-05 23:47 35.95195 -79.75869 32982 ft 461 kts 45°
2026-05-05 23:48 35.98965 -79.69470 32998 ft 461 kts 45°
2026-05-05 23:48 36.02729 -79.63046 32991 ft 461 kts 45°
2026-05-05 23:49 36.06488 -79.56615 32977 ft 462 kts 45°
2026-05-05 23:49 36.10245 -79.50170 32991 ft 462 kts 45°
2026-05-05 23:50 36.14000 -79.43720 32988 ft 462 kts 45°
2026-05-05 23:50 36.17737 -79.37285 32989 ft 459 kts 46°
2026-05-05 23:51 36.21471 -79.30859 32985 ft 460 kts 46°
2026-05-05 23:51 36.25198 -79.24429 33004 ft 460 kts 46°
2026-05-05 23:52 36.28930 -79.17983 33004 ft 459 kts 46°
2026-05-05 23:52 36.32653 -79.11534 33016 ft 460 kts 46°
2026-05-05 23:53 36.36375 -79.05079 33019 ft 460 kts 46°
2026-05-05 23:53 36.40082 -78.98636 33013 ft 458 kts 46°
2026-05-05 23:54 36.43788 -78.92192 33005 ft 459 kts 46°
2026-05-05 23:54 36.47489 -78.85737 33020 ft 459 kts 47°
2026-05-05 23:55 36.51174 -78.79257 32991 ft 459 kts 47°
2026-05-05 23:55 36.54832 -78.72811 33002 ft 459 kts 47°
2026-05-05 23:56 36.58630 -78.66389 32987 ft 451 kts 39°
2026-05-05 23:56 36.63049 -78.60986 32979 ft 447 kts 36°
2026-05-05 23:57 36.67561 -78.55658 32991 ft 447 kts 36°
2026-05-05 23:57 36.72073 -78.50280 32979 ft 450 kts 36°
2026-05-05 23:58 36.76586 -78.44874 32991 ft 450 kts 37°
2026-05-05 23:58 36.81097 -78.39461 32990 ft 450 kts 37°
2026-05-05 23:59 36.85610 -78.34037 32986 ft 450 kts 37°
2026-05-05 23:59 36.90113 -78.28617 33002 ft 450 kts 37°
2026-05-06 00:00 36.94637 -78.23167 32983 ft 452 kts 37°
2026-05-06 00:00 36.99157 -78.17702 32980 ft 452 kts 37°
2026-05-06 00:01 37.03673 -78.12235 32985 ft 452 kts 37°
2026-05-06 00:01 37.08186 -78.06763 32979 ft 452 kts 37°
2026-05-06 00:02 37.12707 -78.01274 32964 ft 455 kts 37°
2026-05-06 00:02 37.17212 -77.95790 32976 ft 454 kts 37°
2026-05-06 00:03 37.21744 -77.90268 32975 ft 454 kts 38°
2026-05-06 00:03 37.26269 -77.84741 32977 ft 454 kts 38°
2026-05-06 00:04 37.28526 -77.81981 32776 ft 452 kts 38°
2026-05-06 00:04 37.30747 -77.79259 32458 ft 438 kts 38°
2026-05-06 00:04 37.32912 -77.76602 31941 ft 434 kts 38°
2026-05-06 00:04 37.35095 -77.73997 31365 ft 428 kts 33°
2026-05-06 00:05 37.40166 -77.70444 30196 ft 417 kts 17°
2026-05-06 00:05 37.42836 -77.68956 29573 ft 420 kts 18°
2026-05-06 00:05 37.45507 -77.67436 29026 ft 424 kts 19°
2026-05-06 00:06 37.48199 -77.65874 28449 ft 428 kts 19°
2026-05-06 00:06 37.50909 -77.64283 27828 ft 431 kts 19°
2026-05-06 00:06 37.53631 -77.62677 27267 ft 433 kts 20°
2026-05-06 00:06 37.56383 -77.61050 26617 ft 439 kts 20°
2026-05-06 00:07 37.59147 -77.59410 26052 ft 441 kts 20°
2026-05-06 00:07 37.61903 -77.57769 25441 ft 444 kts 21°
2026-05-06 00:07 37.64706 -77.56096 24810 ft 446 kts 21°
2026-05-06 00:07 37.67498 -77.54424 24215 ft 444 kts 21°
2026-05-06 00:08 37.70279 -77.52755 23603 ft 441 kts 22°
2026-05-06 00:08 37.73042 -77.51093 22983 ft 437 kts 22°
2026-05-06 00:08 37.75766 -77.49447 22384 ft 432 kts 22°
2026-05-06 00:08 37.78460 -77.47817 21817 ft 427 kts 22°
2026-05-06 00:09 37.81132 -77.46197 21209 ft 424 kts 22°
2026-05-06 00:09 37.83785 -77.44586 20634 ft 420 kts 22°
2026-05-06 00:09 37.86404 -77.42991 20059 ft 416 kts 22°
2026-05-06 00:09 37.89003 -77.41406 19491 ft 413 kts 23°
2026-05-06 00:10 37.91585 -77.39828 18911 ft 410 kts 23°
2026-05-06 00:10 37.94144 -77.38259 18355 ft 406 kts 23°
2026-05-06 00:10 37.96672 -77.36705 17769 ft 401 kts 23°
2026-05-06 00:10 37.99173 -77.35165 17208 ft 398 kts 23°
2026-05-06 00:11 38.01656 -77.33634 16674 ft 395 kts 23°
2026-05-06 00:11 38.04115 -77.32114 16232 ft 392 kts 23°
2026-05-06 00:11 38.06566 -77.30602 15652 ft 391 kts 22°
2026-05-06 00:11 38.09037 -77.29218 15138 ft 385 kts 17°
2026-05-06 00:12 38.11572 -77.28196 14618 ft 377 kts 11°
2026-05-06 00:12 38.14066 -77.27445 14105 ft 359 kts
2026-05-06 00:12 38.16443 -77.26783 13643 ft 341 kts
2026-05-06 00:12 38.18711 -77.26151 13241 ft 328 kts
2026-05-06 00:13 38.20913 -77.25532 12951 ft 322 kts
2026-05-06 00:13 38.23066 -77.24768 12598 ft 321 kts 12°
2026-05-06 00:13 38.25184 -77.23916 12378 ft 317 kts 13°
2026-05-06 00:13 38.27296 -77.23081 12126 ft 319 kts 12°
2026-05-06 00:14 38.29424 -77.22260 11879 ft 319 kts 12°
2026-05-06 00:14 38.31550 -77.21449 11637 ft 319 kts 12°
2026-05-06 00:14 38.33645 -77.20652 11384 ft 318 kts 12°
2026-05-06 00:14 38.35784 -77.19839 11136 ft 316 kts 12°
2026-05-06 00:15 38.37877 -77.19044 11010 ft 313 kts 12°
2026-05-06 00:15 38.39968 -77.18238 10818 ft 315 kts 12°
2026-05-06 00:15 38.42060 -77.17430 10750 ft 313 kts 12°
2026-05-06 00:15 38.44148 -77.16623 10641 ft 314 kts 12°
2026-05-06 00:16 38.46236 -77.15815 10554 ft 313 kts 12°
2026-05-06 00:16 38.48322 -77.15008 10441 ft 314 kts 12°
2026-05-06 00:16 38.50413 -77.14199 10343 ft 313 kts 12°
2026-05-06 00:16 38.52467 -77.13405 10247 ft 312 kts 12°
2026-05-06 00:17 38.54576 -77.12590 10146 ft 313 kts 12°
2026-05-06 00:17 38.56664 -77.11782 9975 ft 314 kts 12°
2026-05-06 00:17 38.58746 -77.10976 9857 ft 312 kts 12°
2026-05-06 00:17 38.60822 -77.10177 9704 ft 312 kts 12°
2026-05-06 00:18 38.62903 -77.09378 9479 ft 312 kts 12°
2026-05-06 00:18 38.64977 -77.08577 9308 ft 311 kts 13°
2026-05-06 00:18 38.67047 -77.07777 9084 ft 311 kts 13°
2026-05-06 00:18 38.69126 -77.06980 8724 ft 312 kts 12°
2026-05-06 00:19 38.71236 -77.06532 8467 ft 305 kts 358°
2026-05-06 00:19 38.73357 -77.06450 8051 ft 307 kts 356°
2026-05-06 00:19 38.75493 -77.06391 7621 ft 306 kts 353°
2026-05-06 00:19 38.77501 -77.06999 7216 ft 290 kts 327°
2026-05-06 00:20 38.79202 -77.08307 6885 ft 283 kts 319°
2026-05-06 00:20 38.80806 -77.09712 6449 ft 284 kts 319°
2026-05-06 00:20 38.82442 -77.11116 6201 ft 281 kts 320°
2026-05-06 00:20 38.84056 -77.12496 5991 ft 276 kts 315°
2026-05-06 00:21 38.85448 -77.14155 5789 ft 273 kts 306°
2026-05-06 00:21 38.86718 -77.15922 5664 ft 265 kts 305°
2026-05-06 00:21 38.87960 -77.17587 5561 ft 250 kts 306°
2026-05-06 00:21 38.89143 -77.19103 5437 ft 231 kts 307°
2026-05-06 00:22 38.90271 -77.20527 5288 ft 228 kts 306°
2026-05-06 00:22 38.91394 -77.21947 5167 ft 221 kts 307°
2026-05-06 00:22 38.92470 -77.23286 4982 ft 210 kts 307°
2026-05-06 00:22 38.93650 -77.24366 4793 ft 214 kts 333°
2026-05-06 00:23 38.95151 -77.24395 4628 ft 224 kts 16°
2026-05-06 00:23 38.96049 -77.23742 4511 ft 230 kts 40°
2026-05-06 00:23 38.97004 -77.22008 3742 ft 247 kts 70°
2026-05-06 00:23 38.97666 -77.20007 3342 ft 238 kts 70°
2026-05-06 00:24 38.98306 -77.18115 3097 ft 219 kts 82°
2026-05-06 00:24 38.98216 -77.16308 2968 ft 192 kts 129°
2026-05-06 00:24 38.97335 -77.15327 2915 ft 154 kts 176°
2026-05-06 00:24 38.96302 -77.14931 2992 ft 159 kts 165°
2026-05-06 00:25 38.95392 -77.14082 3116 ft 173 kts 147°
2026-05-06 00:25 38.94509 -77.12891 2648 ft 191 kts 142°